Zurück zum Katalog

OV2-5

AktivMilitärGEO
NORAD 3428·PAYLOAD·🇺🇸 United States

Gestartet Sep 26, 1968 von Cape Canaveral Space Force Station

Loading…

TLE

AktuellSource: Space-Track

Epoche: Sep 14, 2026, 13:56 UTC

1 03428U 68081A   26257.58064771  .00000017  00000-0  00000-0 0  9998
2 03428   2.1893  52.4062 0078751 283.0788 255.8033  1.01558403121967

Verfolge OV2-5 in Echtzeit mit AllMySat

Download on the App Store